Regional Weather Roundup
Issued by NWS

Home | Current Version | Previous Version | Graphics & Text | Print | Product List | Glossary On
Versions: 1 2 3 4 5 6 7 8 9 10 11 12 13 14 15 16 17 18 19 20 21 22 23 24 25 26 27 28 29 30 31 32 33 34 35 36 37 38 39 40 41 42 43 44 45 46 47 48 49 50
000
ASUS43 KLSX 262207
RWRMO

WEATHER SUMMARY FOR MISSOURI
NATIONAL WEATHER SERVICE SPRINGFIELD MO
400 PM CST FRI DEC 26 2014

NOTE: "FAIR" INDICATES FEW OR NO CLOUDS BELOW 12,000 FEET WITH NO
       SIGNIFICANT WEATHER AND/OR OBSTRUCTIONS TO VISIBILITY.
       CURRENT SKY AND/OR WEATHER CONDITIONS ARE NOT AVAILABLE FOR
       CHILLICOTHE AND FARMINGTON.

MOZ001>031-035>038-043-044-053-054-262300-
...NORTHERN AND WESTERN MISSOURI...

CITY           SKY/WX    TMP DP  RH WIND       PRES   REMARKS
KANSAS CTY INT CLOUDY    41  35  79 NW8       29.92R
KANSAS C DTWN  CLOUDY    47  37  68 NW7       29.91R
LEE`S SUMMIT   CLOUDY    52  42  69 NW3       29.90R
ST JOSEPH      CLOUDY    38  33  82 N10       29.96R
CHILLICOTHE      N/A     53  42  66 CALM      29.93F
KIRKSVILLE     CLOUDY    54  42  64 S7        29.95R

$$
MOZ066>068-077>081-088>096-101>105-262300-
...SOUTHWEST MISSOURI...

CITY           SKY/WX    TMP DP  RH WIND       PRES   REMARKS
SPRINGFIELD    CLOUDY    52  45  77 SE18      29.94S
JOPLIN         CLOUDY    53  50  89 S5        29.91S

$$
MOZ032>034-039>042-045>050-055>058-069>072-262300-
...CENTRAL MISSOURI...

CITY           SKY/WX    TMP DP  RH WIND       PRES   REMARKS
COLUMBIA       PTCLDY    59  45  59 S16       29.94F
JEFFERSON CITY PTCLDY    59  44  57 S13       29.95F
ROLLA          MOCLDY    54  44  69 S13       29.97F
SEDALIA        CLOUDY    58  45  62 S10       29.92S
WHITEMAN AFB   CLOUDY    55  47  72 S6        29.91R
WARRENSBURG    CLOUDY    55  45  67 S3        29.90S
OSAGE BEACH    CLOUDY    55  43  62 S10       29.96F

$$
MOZ051-052-059>065-262300-
...EAST CENTRAL MISSOURI...

CITY           SKY/WX    TMP DP  RH WIND       PRES   REMARKS
ST LOUIS INTL  MOCLDY    60  43  53 S13G20    30.02R
SPIRIT OF STL  MOCLDY    59  43  55 S8        30.00R
ST CHARLES     CLOUDY    56  45  66 S9        30.00R

$$
MOZ072>076-082>087-097>100-106>115-262300-
...SOUTH CENTRAL AND SOUTHEAST MISSOURI...

CITY           SKY/WX    TMP DP  RH WIND       PRES   REMARKS
CAPE GIRARDEAU CLOUDY    52  44  74 S6        30.12F
POPLAR BLUFF   CLOUDY    51  42  71 S5        30.10F
WEST PLAINS    CLOUDY    50  40  68 S14       30.04S

$$



USA.gov is the U.S. government's official web portal to all federal, state and local government web resources and services.